[[{"header":{"parameterUnit":"m.s-1","parameterCategory":1,"la1":30.2991,"la2":30.254,"lo1":-89.0895,"lo2":-89.0444,"dy":0.0017,"dx":0.0017,"nx":28,"ny":28,"refTime":"2023-08-09T03:00:00:Z","depth":0,"parameterNumber":2,"parameterNumberName":"U-component_of_WINDS"},"data":[0,0,0,0,0,0,0,0,0,0,0,0,0,0,0,0,0,0,0,0,0,0,0,0,0,0,0,0,0,0,0,0,0,0,0,0,0,0,0,0,0,0,0,0,0,0,0,0,0,0,0,0,0,0,0,0,0,0,4.7469,4.747,0,4.7566,4.7567,4.7568,4.7512,4.7509,4.7506,4.7504,4.7601,4.7606,4.7612,0,0,0,0,0,0,0,0,0,0,0,0,0,4.7232,4.7237,4.7469,4.747,4.7472,4.7566,4.7567,4.7568,4.7512,4.7509,4.7505,4.7502,4.76,4.7606,4.7612,0,0,0,0,0,0,0,0,0,0,0,0,0,4.7333,4.7238,4.7469,4.7455,4.7455,4.7565,4.7567,4.7569,4.7513,4.7509,4.7505,4.7501,4.7598,4.7605,4.7613,4.7742,0,0,4.7636,4.764,0,0,0,0,0,0,0,0,4.7327,4.7341,4.7456,4.7456,4.7456,4.7522,4.7519,4.7627,4.7514,4.7491,4.7504,4.7499,4.7578,4.7587,4.7615,4.7747,4.7751,4.7637,4.7642,4.7645,4.7647,0,0,0,0,0,0,0,4.732,4.7337,4.7507,4.7457,4.7458,4.7442,4.7452,4.7539,4.7556,4.7492,4.7489,4.7501,4.7578,4.7607,4.7616,4.7753,4.7637,4.7644,4.7649,4.7652,4.7991,4.7995,0,0,0,0,0,0,4.7314,4.7331,4.7504,4.751,4.738,4.745,4.7461,4.7505,4.7555,4.7559,4.7504,4.7498,4.7596,4.7607,4.762,4.7771,4.7645,4.7652,4.7657,4.7987,4.7992,4.7997,0,0,0,0,0,0,4.731,4.733,4.75,4.742,4.744,4.7459,4.7509,4.7509,4.7539,4.7564,4.7567,4.7531,4.7593,4.7609,4.7711,4.7773,4.7656,4.7663,4.7981,4.7988,4.7994,4.8077,0,0,0,0,0,0,4.7303,4.7329,4.738,4.7421,4.7445,4.7592,4.7513,4.7514,4.7552,4.7545,4.759,4.7594,4.7591,4.77,4.7719,4.7782,4.7669,4.7976,4.7984,4.7992,4.8068,4.8085,4.81,0,0,0,0,0,4.7295,4.74,4.7383,4.7404,4.7509,4.7596,4.7609,4.7604,4.7558,4.7607,4.7623,4.7593,4.7764,4.7711,4.7732,4.7798,4.7972,4.7982,4.7992,4.8061,4.8082,4.8099,0,0,0,0,0,0,4.7366,4.7405,4.7386,4.7508,4.7549,4.7586,4.7649,4.7626,4.7681,4.7671,4.7663,4.7673,4.7779,4.7799,4.7739,4.7924,4.7861,4.7875,4.7906,4.7926,4.7941,4.7933,4.7675,0,0,0,0,0,4.7395,4.7464,4.7494,4.7599,4.762,4.7631,4.7669,4.7661,4.7703,4.7719,4.7743,4.7784,4.7846,4.7888,4.7947,4.8071,4.8078,4.8127,4.8143,4.8155,4.8167,4.823,4.8251,4.8029,4.8029,4.8029,0,0,4.7458,4.7488,4.7531,4.7613,4.7644,4.7713,4.7646,4.7723,4.7773,4.7731,4.7828,4.7847,4.7891,4.8004,4.8055,4.8024,4.823,4.8168,4.8178,4.8183,4.8242,4.8263,4.8282,4.8036,4.8035,4.8033,0,0,4.7605,4.7637,4.7725,4.7756,4.7803,4.7809,4.783,4.787,4.788,4.7978,4.7946,4.8005,4.8115,4.8146,4.8177,4.8333,4.8305,4.8353,4.8433,4.8495,4.8512,4.8527,4.8579,4.8598,4.8365,4.8365,4.8365,0,4.7676,4.778,4.7773,4.7851,4.7886,4.7851,4.7938,4.7969,4.8033,4.8057,4.8022,4.8155,4.8184,4.8301,4.8338,4.8366,4.8387,4.8347,4.851,4.8526,4.854,4.8589,4.8609,4.837,4.837,4.8369,4.8369,0,4.7862,4.7935,4.8,4.8061,4.8104,4.8187,4.819,4.8235,4.8223,4.8232,4.8329,4.8361,4.8424,4.8452,4.8443,4.8568,4.8546,4.8511,4.8447,4.8566,4.8612,4.8631,4.8378,4.8376,4.8374,4.8373,0,0,4.8058,4.8112,4.8136,4.8161,4.8209,4.8263,4.8343,4.8404,4.844,4.8485,4.8549,4.8641,4.8608,4.8642,4.8635,4.869,4.8806,4.8647,4.8648,4.8672,4.8941,4.8965,4.8987,4.8789,4.8792,4.8795,4.8936,0,4.8205,4.8344,4.8339,4.8468,4.8532,4.8498,4.8567,4.8602,4.8613,4.8667,4.8678,4.8742,4.8695,4.8715,4.8767,4.8781,4.8859,4.8771,4.8846,4.8848,4.8832,4.9012,4.9038,4.9169,4.8954,4.8957,4.8959,0,4.8397,4.8446,4.8581,4.8615,4.8642,4.8704,4.8757,4.8811,4.8849,4.8852,4.889,4.8873,4.8951,4.8886,4.8992,4.8931,4.8962,4.8973,4.8978,4.8982,4.8909,4.9018,4.9211,4.923,4.8988,4.8986,4.8984,0,4.852,4.8621,4.8713,4.8737,4.878,4.8824,4.8844,4.8878,4.8914,4.8961,4.8983,4.9039,4.9069,4.9111,4.9109,4.9063,4.9214,4.9151,4.9217,4.9217,4.9248,4.9246,4.9446,4.9274,4.9273,4.9273,4.9272,0,4.8684,4.8767,4.8769,4.8826,4.8916,4.8909,4.8999,4.9014,4.9044,4.9101,4.9077,4.9131,4.9126,4.918,4.9179,4.9264,4.9279,4.9281,4.9279,4.9282,4.9281,4.93,4.9289,4.9278,4.9277,4.9276,4.9275,0,4.8837,4.8842,4.894,4.8972,4.8982,4.9047,4.9074,4.9126,4.9134,4.9206,4.9223,4.9234,4.9296,4.9298,4.9371,4.9369,4.9472,4.9462,4.9459,4.9455,4.952,4.9512,4.9737,4.9764,4.9577,4.9579,4.958,0,4.8939,4.9002,4.904,4.9076,4.9099,4.9158,4.9194,4.9188,4.9226,4.9273,4.9319,4.9378,4.9425,4.9526,4.9539,4.9593,4.9582,4.9657,4.959,4.9589,4.9578,4.9573,4.9577,4.9669,4.9671,4.9673,4.9674,0,4.9119,4.9118,4.9171,4.9224,4.9267,4.9308,4.9347,4.9378,4.9376,4.942,4.9482,4.9519,4.9591,4.9649,4.97,4.9719,4.9695,4.9695,4.9712,4.9714,4.9708,4.9708,4.949,4.969,4.9688,4.9687,4.9686,4.9685,4.9248,4.93,4.9334,4.9392,4.942,4.9456,4.9506,4.9518,4.9571,4.9628,4.9622,4.969,4.9723,4.979,4.9813,4.9865,4.9839,4.9866,4.9872,4.9877,4.9882,4.9702,4.9875,4.9875,4.9874,4.9874,4.9874,0,4.9423,4.9443,4.9497,4.955,4.9595,4.9569,4.961,4.9648,4.9709,4.9742,4.9788,4.9858,4.9914,4.9931,4.9984,5.0023,5.0013,5.0036,5.0032,5.0036,4.9905,4.9882,5.0043,5.0043,5.0043,5.0043,5.0043,5.0043,4.9519,4.9605,4.9607,4.9706,4.9724,4.9791,4.9815,4.9847,4.9873,4.9952,4.9998,5.0009,5.0034,5.0089,5.0138,5.0141,5.016,5.0188,5.0186,5.0063,5.0046,5.0029,5.0008,5.0193,5.0193,5.0313,5.0314,5.0315]},{"header":{"parameterUnit":"m.s-1","parameterCategory":1,"la1":30.2991,"la2":30.254,"lo1":-89.0895,"lo2":-89.0444,"dy":0.0017,"dx":0.0017,"nx":28,"ny":28,"refTime":"2023-08-09T03:00:00:Z","depth":0,"parameterNumber":3,"parameterNumberName":"V-component_of_WINDS"},"data":[0,0,0,0,0,0,0,0,0,0,0,0,0,0,0,0,0,0,0,0,0,0,0,0,0,0,0,0,0,0,0,0,0,0,0,0,0,0,0,0,0,0,0,0,0,0,0,0,0,0,0,0,0,0,0,0,0,0,4.2987,4.2988,0,4.3024,4.3024,4.3025,4.2972,4.297,4.2968,4.2967,4.3003,4.3006,4.3008,0,0,0,0,0,0,0,0,0,0,0,0,0,4.2869,4.2871,4.2987,4.2988,4.2988,4.3024,4.3024,4.3025,4.2972,4.297,4.2968,4.2966,4.3002,4.3005,4.3009,0,0,0,0,0,0,0,0,0,0,0,0,0,4.2914,4.2872,4.2987,4.2966,4.2965,4.3024,4.3024,4.3025,4.2973,4.297,4.2967,4.2965,4.3001,4.3005,4.3009,4.309,0,0,4.3021,4.3023,0,0,0,0,0,0,0,0,4.2912,4.2919,4.2969,4.2968,4.2966,4.2991,4.2996,4.3047,4.2974,4.297,4.2967,4.2963,4.3001,4.3005,4.3018,4.3091,4.3093,4.3022,4.3024,4.3026,4.3027,0,0,0,0,0,0,0,4.2909,4.2917,4.3002,4.297,4.2968,4.2954,4.2958,4.3005,4.3001,4.297,4.2966,4.2971,4.3,4.3014,4.3018,4.3094,4.3022,4.3025,4.3028,4.3029,4.3231,4.3234,0,0,0,0,0,0,4.2908,4.2915,4.3,4.3003,4.2932,4.2959,4.2962,4.2986,4.3,4.2999,4.2974,4.2969,4.3009,4.3014,4.3019,4.3112,4.3026,4.303,4.3032,4.3228,4.3232,4.3235,0,0,0,0,0,0,4.2906,4.2917,4.2999,4.2958,4.2967,4.2964,4.299,4.2988,4.3002,4.3003,4.3001,4.2989,4.3007,4.3014,4.3072,4.3113,4.3032,4.3035,4.3225,4.323,4.3234,4.33,0,0,0,0,0,0,4.2903,4.2916,4.2948,4.2959,4.297,4.3052,4.2993,4.2991,4.3009,4.3003,4.3017,4.3017,4.3005,4.3066,4.3076,4.3117,4.3038,4.3221,4.3227,4.3232,4.3295,4.3307,4.3317,0,0,0,0,0,4.2899,4.2965,4.2949,4.296,4.3009,4.3055,4.3061,4.3046,4.3013,4.3044,4.3044,4.3016,4.3107,4.3073,4.3083,4.3126,4.3219,4.3225,4.3232,4.329,4.3304,4.3317,0,0,0,0,0,0,4.296,4.2967,4.2949,4.3021,4.3038,4.3046,4.3084,4.3063,4.3089,4.3082,4.3062,4.3066,4.3127,4.3133,4.3094,4.3203,4.3157,4.3166,4.3197,4.3211,4.3222,4.3219,4.3042,0,0,0,0,0,4.2981,4.3018,4.3022,4.3086,4.3095,4.3088,4.3108,4.3095,4.3111,4.3117,4.3122,4.3138,4.3169,4.3191,4.3221,4.3295,4.3296,4.333,4.3341,4.335,4.3358,4.3395,4.3409,4.3257,4.3257,4.3257,0,0,4.3027,4.3035,4.306,4.3098,4.3109,4.3147,4.3094,4.3137,4.3164,4.3124,4.3178,4.3182,4.3198,4.3264,4.3294,4.3271,4.34,4.3359,4.3366,4.3369,4.3403,4.3417,4.343,4.3261,4.3261,4.326,0,0,4.3128,4.314,4.3192,4.3204,4.3221,4.3216,4.3228,4.3239,4.324,4.3294,4.3264,4.3295,4.3352,4.3364,4.3377,4.348,4.3455,4.3491,4.3549,4.3585,4.3597,4.3607,4.3642,4.3655,4.3499,4.3499,4.3499,0,4.3182,4.3238,4.3222,4.3266,4.3282,4.3247,4.3299,4.3311,4.3337,4.3349,4.3323,4.339,4.3399,4.3466,4.3491,4.3504,4.3516,4.3489,4.3597,4.3607,4.3617,4.3649,4.3663,4.3503,4.3502,4.3502,4.3501,0,4.3302,4.3342,4.3382,4.3407,4.3428,4.3476,4.3465,4.3489,4.3474,4.3471,4.3525,4.3534,4.3564,4.3579,4.3565,4.3643,4.3628,4.36,4.3553,4.3635,4.3666,4.3678,4.3508,4.3507,4.3506,4.3505,0,0,4.3444,4.3458,4.3473,4.3482,4.3498,4.3527,4.3572,4.3601,4.362,4.3639,4.3675,4.3722,4.3695,4.371,4.3697,4.373,4.3808,4.3697,4.3697,4.3715,4.3891,4.3911,4.3926,4.3791,4.3794,4.3796,4.3889,0,4.3543,4.3621,4.3607,4.3682,4.3717,4.3683,4.3721,4.3734,4.3733,4.376,4.3758,4.3791,4.3754,4.3763,4.3793,4.3792,4.3842,4.3785,4.3823,4.3825,4.3818,4.3942,4.3964,4.4052,4.3901,4.3903,4.3905,0,4.367,4.3692,4.3771,4.3778,4.3792,4.3827,4.3851,4.3879,4.3892,4.3888,4.3904,4.3884,4.3927,4.3881,4.3939,4.39,4.3915,4.3916,4.3919,4.3921,4.3869,4.3945,4.408,4.4092,4.3924,4.3922,4.3921,0,4.3762,4.3812,4.3864,4.3874,4.3885,4.391,4.3915,4.3926,4.3943,4.3963,4.3974,4.4,4.4013,4.4033,4.402,4.3987,4.4079,4.4032,4.4075,4.4076,4.4095,4.4094,4.4232,4.4108,4.4108,4.4107,4.4107,0,4.3873,4.3922,4.3906,4.3938,4.3991,4.3973,4.4026,4.4027,4.4036,4.4067,4.404,4.4069,4.4051,4.4079,4.4069,4.4117,4.4124,4.4121,4.4117,4.4122,4.4122,4.4131,4.4123,4.4111,4.411,4.411,4.4109,0,4.3985,4.3976,4.4031,4.4036,4.4038,4.4076,4.408,4.4109,4.4105,4.4144,4.4152,4.4145,4.4176,4.4165,4.4199,4.4192,4.4252,4.4242,4.4248,4.4244,4.4287,4.4283,4.4434,4.4452,4.4319,4.432,4.4321,0,4.4056,4.4092,4.41,4.4119,4.4126,4.4157,4.4173,4.4157,4.4175,4.4191,4.4218,4.4247,4.4268,4.4319,4.4316,4.4341,4.433,4.4381,4.4333,4.4336,4.4328,4.4325,4.4327,4.439,4.4392,4.4393,4.4394,0,4.4181,4.4174,4.42,4.4223,4.4244,4.4262,4.4277,4.4294,4.4278,4.43,4.4331,4.4347,4.438,4.4408,4.443,4.4434,4.4411,4.4409,4.442,4.4425,4.4426,4.4423,4.4271,4.4405,4.4404,4.4403,4.4403,4.4402,4.4273,4.4303,4.4312,4.4341,4.435,4.4365,4.4392,4.439,4.4415,4.4441,4.4429,4.4464,4.4474,4.4501,4.4508,4.4535,4.4515,4.4531,4.4535,4.4539,4.4543,4.4423,4.4539,4.4539,4.4538,4.4538,4.4538,0,4.4395,4.4399,4.4425,4.4447,4.4469,4.4445,4.446,4.448,4.4511,4.4522,4.4544,4.4578,4.4604,4.4603,4.4627,4.4648,4.4638,4.4655,4.4652,4.4653,4.4561,4.4548,4.4662,4.4662,4.4662,4.4662,4.4662,4.4662,4.4461,4.4509,4.4503,4.4555,4.4558,4.4592,4.4603,4.4615,4.4623,4.4663,4.4684,4.4683,4.4689,4.4713,4.4735,4.4734,4.4743,4.4764,4.4758,4.4672,4.466,4.4648,4.4635,4.4766,4.4767,4.4848,4.4848,4.4849]}]]